Tracking 20942 objects as of 13-Jul-2020
HD Live streaming from Space Station
objects crossing your sky now

TSIKADA

Track TSIKADA now!
10-day predictions
TSIKADA is classified as:


NORAD ID: 23463
Int'l Code: 1995-002A
Perigee: 968.4 km
Apogee: 1,027.0 km
Inclination: 82.9 °
Period: 104.9 minutes
Semi major axis: 7368 km
RCS: 1.4564 m2 (large)
Launch date: January 24, 1995
Source: Commonwealth of Independent States (former USSR) (CIS)
Launch site: PLESETSK MISSILE AND SPACE COMPLEX (PKMTR)
aabbcc
Your satellite tracking list
Your tracking list is empty




NASA's NSSDC Master Catalog

Two Line Element Set (TLE):
1 23463U 95002A   20194.92200324 +.00000011 +00000-0 -43888-5 0  9991
2 23463 082.9270 176.8649 0039777 034.8359 344.3917 13.72509000275422
Source of the keplerian elements: AFSPC